星链-30544 (STARLINK-30544 )

导读

STARLINK-30544是美国SpaceX星链互联网星座中的一颗卫星,于2023年10月13日发射升空,属于星链项目第二代部署批次,主要用于为全球提供低延迟、高速率的卫星互联网服务,填补地面网络覆盖盲区,目前已进入预定近地轨道开展运行测试与组网工作。

Basic Information
目录编号:
58055
目录名称:
STARLINK-30544
国际标识:
2023-158E
轨道中心:
EARTH
卫星名称:
星链-30544
卫星全名:
星链-30544 (STARLINK-30544 )
卫星状态:
在轨 (已飞行1057 天)
发射日期:
2023-10-13 UTC
国别 :
美国 (US)
星等 :
--
Orbit Information
数据来源 国际轨道数据
星历时间: 2026-09-03T22:32:38+0800
17小时前
查看轨道信息
半长轴: 6861.183km
偏心率: 0.0001678
轨道倾角: 43.003°
近地点辐角 268.040°
升交点赤经 101.956°
平近点角 92.026°
近地点: 481.894km
远地点: 484.198km
周期: 94.267分钟
每日圈数: 15.275813
Detailed Information
固有亮度:
5
最大亮度:
0.3
卫星平台:
Starlink v2.0 mini
覆盖范围:
全球
运营商:
太空探索技术公司
运营商所在国:
美国
制造商(研发单位):
太空探索技术公司
制造商所在国:
美国
使用方式:
暂无
Satellite Introduction
星链(Starlink)计划是由太空探索技术公司(SpaceX)提出的一个巨型低轨卫星互联网星座项目,计划在2019年至2024年间在太空搭建由约1.2万颗卫星组成的“星链”网络,其中1584颗将部署在地球上空550千米处的近地轨道,并从2020年开始工作。该卫星仍在工作。
2D Orbit Map
3D Orbit Map
Orbit Altitude Analysis Chart
Orbit Inclination Analysis Chart
Orbit Comprehensive Analysis Chart
View Comprehensive Chart
Conjunction Data List
Event ID Objects TCA Miss Dist (km) Collision Risk Probability Collision Risk Index (CRI) Action
CDM_260905-134405-805506-791821
2026-09-05T
13:44:04+0000
0.260 km
中距离
5.193753E-4 高风险 0.89
CDM_260828-172505-805506-791821
2026-08-28T
17:25:17+0000
0.370 km
远距离
3.016334E-4 高风险 0.85
CDM_260829-130205-805506-791821
2026-08-29T
13:02:13+0000
0.711 km
远距离
6.201144E-5 中风险 0.71
CDM_260904-165505-805506-319921
2026-09-04T
16:55:35+0000
0.800 km
远距离
2.732294E-5 中风险 0.64
CDM_260831-140305-805506-319922
2026-08-31T
14:03:44+0000
0.810 km
远距离
2.618466E-5 中风险 0.63
CDM_260904-235905-805506-319921
2026-09-04T
23:59:16+0000
0.830 km
远距离
2.421996E-5 中风险 0.63
CDM_260905-151805-805506-791821
2026-09-05T
15:18:14+0000
1.072 km
极远距离
1.596407E-5 中风险 0.59
CDM_260829-112805-805506-791821
2026-08-29T
11:28:03+0000
1.325 km
极远距离
7.67042E-6 低风险 0.53
CDM_260828-155105-805506-791822
2026-08-28T
15:51:08+0000
1.366 km
极远距离
6.913802E-6 低风险 0.52
CDM_260904-152105-805506-319921
2026-09-04T
15:21:25+0000
1.521 km
极远距离
3.145891E-6 低风险 0.45